| time (UTC) | temp F | wind direction | speed MPH | gust MPH | rain 1hr in | rain 24hr in | rain mn in | humidity % | barometer mb |
| 20260510182008 | 72 | 278 | 13.0 | 20.0 | 0.00 | 0.00 | 0.00 | 49 | 1010.6 |
| 20260510181027 | 72 | 289 | 10.0 | 17.0 | 0.00 | 0.00 | 0.00 | 49 | 1010.5 |
| 20260510180020 | 74 | 286 | 11.0 | 18.0 | 0.00 | 0.00 | 0.00 | 50 | 1010.5 |
| 20260510175009 | 74 | 275 | 12.0 | 20.0 | 0.00 | 0.00 | 0.00 | 49 | 1010.3 |
| 20260510174026 | 75 | 281 | 9.0 | 14.0 | 0.00 | 0.00 | 0.00 | 51 | 1010.2 |
| 20260510173012 | 76 | 277 | 6.0 | 10.0 | 0.00 | 0.00 | 0.00 | 52 | 1010.2 |
| 20260510172007 | 76 | 263 | 5.0 | 8.0 | 0.00 | 0.00 | 0.00 | 55 | 1009.9 |
| 20260510171007 | 74 | 269 | 4.0 | 6.0 | 0.00 | 0.00 | 0.00 | 63 | 1009.6 |
| 20260510170024 | 72 | 262 | 4.0 | 6.0 | 0.00 | 0.00 | 0.00 | 64 | 1009.6 |
| 20260510165007 | 72 | 216 | 3.0 | 5.0 | 0.00 | 0.00 | 0.00 | 67 | 1009.7 |
| 20260510164007 | 73 | 150 | 3.0 | 5.0 | 0.00 | 0.00 | 0.00 | 64 | 1009.5 |
| 20260510163017 | 73 | 144 | 4.0 | 8.0 | 0.00 | 0.00 | 0.00 | 66 | 1009.5 |
| 20260510162007 | 73 | 132 | 6.0 | 10.0 | 0.00 | 0.00 | 0.00 | 63 | 1009.5 |
| 20260510161007 | 73 | 127 | 7.0 | 11.0 | 0.00 | 0.00 | 0.00 | 64 | 1009.5 |
| 20260510160009 | 73 | 125 | 7.0 | 11.0 | 0.00 | 0.00 | 0.00 | 63 | 1009.7 |
| 20260510155010 | 73 | 134 | 8.0 | 13.0 | 0.00 | 0.00 | 0.00 | 64 | 1009.7 |
| 20260510154007 | 73 | 133 | 10.0 | 15.0 | 0.00 | 0.00 | 0.00 | 64 | 1009.7 |
| 20260510152007 | 75 | 65 | 5.0 | 6.0 | 0.00 | 0.00 | 0.00 | 45 | 1009.8 |
| 20260510151010 | 89 | 124 | 11.0 | 16.0 | 0.00 | 0.00 | 0.00 | 32 | 1010.0 |
| 20260510150026 | 91 | 124 | 12.0 | 18.0 | 0.00 | 0.00 | 0.00 | 34 | 1010.1 |
| 20260510145008 | 92 | 123 | 11.0 | 18.0 | 0.00 | 0.00 | 0.00 | 40 | 1010.4 |
| 20260510144009 | 91 | 127 | 14.0 | 20.0 | 0.00 | 0.00 | 0.00 | 42 | 1010.5 |
| 20260510121008 | 78 | 251 | 8.0 | 13.0 | 0.00 | 0.00 | 0.00 | 41 | 1011.9 |
| 20260510115010 | 76 | 147 | 8.0 | 12.0 | 0.00 | 0.00 | 0.00 | 49 | 1012.3 |
| 20260510114007 | 75 | 196 | 6.0 | 9.0 | 0.00 | 0.00 | 0.00 | 47 | 1012.4 |
| 20260510113019 | 76 | 159 | 7.0 | 11.0 | 0.00 | 0.00 | 0.00 | 47 | 1012.5 |
| 20260510112007 | 75 | 133 | 5.0 | 9.0 | 0.00 | 0.00 | 0.00 | 50 | 1012.6 |
| 20260510111007 | 75 | 193 | 6.0 | 11.0 | 0.00 | 0.00 | 0.00 | 52 | 1012.8 |
| 20260510110026 | 74 | 199 | 7.0 | 12.0 | 0.00 | 0.00 | 0.00 | 48 | 1012.9 |
| 20260510103016 | 73 | 215 | 6.0 | 10.0 | 0.00 | 0.00 | 0.00 | 47 | 1013.3 |
| 20260510102007 | 73 | 229 | 3.0 | 6.0 | 0.00 | 0.00 | 0.00 | 48 | 1013.3 |
| 20260510101007 | 72 | 228 | 5.0 | 9.0 | 0.00 | 0.00 | 0.00 | 49 | 1013.4 |
| 20260510100012 | 72 | 237 | 6.0 | 10.0 | 0.00 | 0.00 | 0.00 | 51 | 1013.5 |
| 20260510094007 | 71 | 228 | 7.0 | 11.0 | 0.00 | 0.00 | 0.00 | 54 | 1013.7 |
| 20260510093011 | 70 | 247 | 5.0 | 9.0 | 0.00 | 0.00 | 0.00 | 54 | 1013.8 |
| 20260510092006 | 69 | 233 | 7.0 | 11.0 | 0.00 | 0.00 | 0.00 | 57 | 1013.8 |
| 20260510091007 | 70 | 271 | 6.0 | 9.0 | 0.00 | 0.00 | 0.00 | 55 | 1013.8 |
| 20260510085007 | 72 | 262 | 3.0 | 7.0 | 0.00 | 0.00 | 0.00 | 56 | 1013.9 |
| 20260510084008 | 67 | 264 | 4.0 | 7.0 | 0.00 | 0.00 | 0.00 | 64 | 1014.0 |
| 20260510083022 | 66 | 292 | 3.0 | 5.0 | 0.00 | 0.00 | 0.00 | 67 | 1014.1 |
| 20260509221008 | 62 | 287 | 3.0 | 4.0 | 0.00 | 0.00 | 0.00 | 90 | 1013.9 |
| 20260509220011 | 62 | 256 | 4.0 | 6.0 | 0.00 | 0.00 | 0.61 | 90 | 1014.3 |
| 20260509214009 | 61 | 260 | 2.0 | 4.0 | 0.00 | 0.00 | 0.61 | 89 | 1014.3 |
| 20260509213012 | 62 | 291 | 1.0 | 2.0 | 0.00 | 0.00 | 0.61 | 89 | 1013.9 |
| 20260509212008 | 62 | 42 | 0.0 | 2.0 | 0.00 | 0.00 | 0.61 | 89 | 1013.7 |
| 20260509210010 | 61 | 91 | 1.0 | 2.0 | 0.00 | 0.00 | 0.61 | 89 | 1013.4 |
| 20260509205010 | 61 | 132 | 1.0 | 2.0 | 0.00 | 0.00 | 0.61 | 88 | 1013.5 |
| 20260509204020 | 62 | 225 | 0.0 | 1.0 | 0.00 | 0.00 | 0.61 | 88 | 1013.6 |
| 20260509203030 | 62 | 224 | 1.0 | 2.0 | 0.00 | 0.00 | 0.61 | 88 | 1013.5 |
| 20260509202008 | 62 | 101 | 0.0 | 2.0 | 0.00 | 0.00 | 0.61 | 88 | 1013.5 |
| 20260509200010 | 62 | 156 | 1.0 | 2.0 | 0.00 | 0.00 | 0.61 | 86 | 1013.1 |
| 20260509195008 | 62 | 113 | 2.0 | 4.0 | 0.00 | 0.00 | 0.61 | 86 | 1013.0 |
| 20260509194010 | 62 | 218 | 1.0 | 3.0 | 0.00 | 0.00 | 0.61 | 85 | 1012.8 |
| 20260509193009 | 63 | 248 | 1.0 | 3.0 | 0.00 | 0.00 | 0.61 | 85 | 1012.8 |
| 20260509192009 | 63 | 225 | 2.0 | 3.0 | 0.00 | 0.00 | 0.61 | 84 | 1012.7 |
| 20260509191011 | 63 | 149 | 1.0 | 3.0 | 0.00 | 0.00 | 0.61 | 82 | 1012.5 |
| 20260509190024 | 63 | 144 | 2.0 | 4.0 | 0.00 | 0.00 | 0.61 | 81 | 1012.2 |
| 20260509185009 | 63 | 133 | 3.0 | 5.0 | 0.00 | 0.00 | 0.61 | 80 | 1012.1 |
| 20260509184010 | 63 | 111 | 4.0 | 7.0 | 0.00 | 0.00 | 0.61 | 80 | 1012.0 |
| 20260509183021 | 63 | 103 | 5.0 | 8.0 | 0.00 | 0.00 | 0.61 | 81 | 1011.6 |